When you browse on this site, cookies collect data to enhance your experience and personalize the content and advertising you see.
Visit our Privacy Policy to learn more. By continuing to use the site, you agree to this use of cookies and data.
  • In Norway
  • List of Countries
  • For 7 days
  • Water Temperature
  • Satellite Maps
  • Weather Map
  • Weather Widgets
  • user-avatar
    Login

    Hourly Weather Canberra

    Today, 11 December, Tuesday

    Time Temperature Precipitation Wind Pressure Humidity
    00:00 +16°C° 0 mm 2 mps 710 mmHg 93%
    01:00 +15°C° 0 mm 2 mps 710 mmHg 93%
    02:00 +15°C° 0 mm 2 mps 710 mmHg 93%
    03:00 +15°C° 0 mm 2 mps 710 mmHg 93%
    04:00 +16°C° 0 mm 2 mps 710 mmHg 95%
    05:00 +16°C° 0 mm 2 mps 710 mmHg 92%
    06:00 +16°C° 0 mm 2 mps 710 mmHg 90%
    07:00 +16°C° 0 mm 2 mps 710 mmHg 88%
    08:00 +18°C° 0 mm 2 mps 711 mmHg 80%
    09:00 +20°C° 0 mm 2 mps 711 mmHg 72%
    10:00 +23°C° 0 mm 2 mps 711 mmHg 65%
    11:00 +24°C° 0.2 mm 2 mps 711 mmHg 61%
    12:00 +25°C° 0.2 mm 2 mps 711 mmHg 57%
    13:00 +26°C° 0.2 mm 2 mps 710 mmHg 53%
    14:00 +26°C° 0.7 mm 3 mps 710 mmHg 57%
    15:00 +25°C° 0.7 mm 3 mps 710 mmHg 61%
    16:00 +24°C° 0.7 mm 3 mps 709 mmHg 65%
    17:00 +21°C° 0.2 mm 3 mps 709 mmHg 71%
    18:00 +20°C° 0.2 mm 3 mps 709 mmHg 76%
    19:00 +19°C° 0.2 mm 3 mps 709 mmHg 82%
    20:00 +17°C° 0 mm 2 mps 709 mmHg 86%
    21:00 +16°C° 0 mm 2 mps 710 mmHg 90%
    22:00 +15°C° 0 mm 2 mps 710 mmHg 94%
    23:00 +15°C° 0 mm 2 mps 709 mmHg 94%

    Tomorrow, 12 December, Wednesday

    Time Temperature Precipitation Wind Pressure Humidity
    00:00 +15°C° 0 mm 2 mps 709 mmHg 94%
    01:00 +15°C° 0 mm 2 mps 709 mmHg 94%
    02:00 +15°C° 0 mm 2 mps 708 mmHg 94%
    03:00 +15°C° 0 mm 2 mps 708 mmHg 94%
    04:00 +15°C° 0 mm 2 mps 708 mmHg 93%
    05:00 +15°C° 0 mm 2 mps 708 mmHg 90%
    06:00 +16°C° 0 mm 2 mps 708 mmHg 88%
    07:00 +17°C° 0 mm 2 mps 709 mmHg 85%
    08:00 +18°C° 0 mm 2 mps 708 mmHg 78%
    09:00 +19°C° 0 mm 2 mps 708 mmHg 72%
    10:00 +21°C° 0 mm 3 mps 708 mmHg 66%
    11:00 +23°C° 0 mm 2 mps 708 mmHg 60%
    12:00 +25°C° 0 mm 2 mps 707 mmHg 53%
    13:00 +27°C° 0 mm 2 mps 707 mmHg 47%
    14:00 +27°C° 0 mm 2 mps 706 mmHg 45%
    15:00 +28°C° 0 mm 2 mps 706 mmHg 44%
    16:00 +28°C° 0 mm 2 mps 705 mmHg 42%
    17:00 +26°C° 0 mm 2 mps 705 mmHg 51%
    18:00 +24°C° 0 mm 3 mps 704 mmHg 59%
    19:00 +22°C° 0 mm 3 mps 704 mmHg 68%
    20:00 +20°C° 0 mm 3 mps 704 mmHg 76%
    21:00 +19°C° 0 mm 2 mps 704 mmHg 83%
    22:00 +17°C° 0 mm 2 mps 704 mmHg 91%
    23:00 +17°C° 0 mm 2 mps 704 mmHg 91%

    Day after tomorrow, 13 December, Thursday

    Time Temperature Precipitation Wind Pressure Humidity
    00:00 +17°C° 0 mm 2 mps 703 mmHg 92%
    01:00 +18°C° 0 mm 1 mps 703 mmHg 92%
    02:00 +18°C° 0 mm 1 mps 702 mmHg 93%
    03:00 +18°C° 0 mm 1 mps 702 mmHg 93%
    04:00 +16°C° 0 mm 1 mps 701 mmHg 94%
    05:00 +18°C° 0 mm 1 mps 702 mmHg 92%
    06:00 +17°C° 0 mm 2 mps 702 mmHg 90%
    07:00 +18°C° 0 mm 2 mps 702 mmHg 88%
    08:00 +19°C° 0 mm 2 mps 701 mmHg 83%
    09:00 +20°C° 0 mm 2 mps 701 mmHg 78%
    10:00 +22°C° 0 mm 3 mps 700 mmHg 73%
    11:00 +24°C° 0.1 mm 3 mps 699 mmHg 65%
    12:00 +26°C° 0.1 mm 3 mps 699 mmHg 58%
    13:00 +28°C° 0.1 mm 3 mps 698 mmHg 51%
    14:00 +27°C° 2.2 mm 3 mps 697 mmHg 59%
    15:00 +25°C° 2.2 mm 3 mps 697 mmHg 68%
    16:00 +24°C° 2.2 mm 3 mps 696 mmHg 77%
    17:00 +22°C° 1.7 mm 3 mps 696 mmHg 81%
    18:00 +21°C° 1.7 mm 3 mps 696 mmHg 85%
    19:00 +20°C° 1.7 mm 2 mps 696 mmHg 90%
    20:00 +19°C° 1.8 mm 3 mps 696 mmHg 91%
    21:00 +19°C° 1.8 mm 3 mps 697 mmHg 92%
    22:00 +18°C° 1.8 mm 3 mps 697 mmHg 94%
    23:00 +17°C° 1.7 mm 3 mps 697 mmHg 94%

    14 December, Friday

    Time Temperature Precipitation Wind Pressure Humidity
    00:00 +16°C° 1.7 mm 3 mps 697 mmHg 94%
    01:00 +15°C° 1.7 mm 2 mps 696 mmHg 94%
    02:00 +13°C° 0.2 mm 3 mps 696 mmHg 93%
    03:00 +13°C° 0.2 mm 3 mps 696 mmHg 92%
    04:00 +12°C° 0.2 mm 3 mps 696 mmHg 92%
    05:00 +12°C° 0 mm 3 mps 697 mmHg 85%
    06:00 +12°C° 0 mm 3 mps 698 mmHg 78%
    07:00 +12°C° 0 mm 3 mps 699 mmHg 72%
    08:00 +14°C° 0 mm 3 mps 699 mmHg 62%
    09:00 +17°C° 0 mm 4 mps 700 mmHg 52%
    10:00 +19°C° 0 mm 4 mps 700 mmHg 42%
    11:00 +20°C° 0 mm 4 mps 700 mmHg 40%
    12:00 +21°C° 0 mm 4 mps 700 mmHg 38%
    13:00 +23°C° 0 mm 4 mps 700 mmHg 35%
    14:00 +23°C° 0 mm 4 mps 700 mmHg 36%
    15:00 +25°C° 0 mm 4 mps 700 mmHg 36%
    16:00 +25°C° 0 mm 4 mps 700 mmHg 37%
    17:00 +22°C° 0.5 mm 4 mps 700 mmHg 50%
    18:00 +20°C° 0.5 mm 3 mps 700 mmHg 62%
    19:00 +19°C° 0.5 mm 3 mps 700 mmHg 75%
    20:00 +18°C° 0.1 mm 2 mps 700 mmHg 80%
    21:00 +17°C° 0.1 mm 2 mps 700 mmHg 86%
    22:00 +16°C° 0.1 mm 1 mps 700 mmHg 91%
    23:00 +16°C° 0 mm 1 mps 700 mmHg 92%

    15 December, Saturday

    Time Temperature Precipitation Wind Pressure Humidity
    00:00 +15°C° 0 mm 1 mps 700 mmHg 92%
    01:00 +15°C° 0 mm 1 mps 700 mmHg 93%
    02:00 +15°C° 0 mm 1 mps 700 mmHg 94%
    03:00 +15°C° 0 mm 1 mps 700 mmHg 95%
    04:00 +15°C° 0 mm 1 mps 700 mmHg 96%
    05:00 +16°C° 0 mm 1 mps 701 mmHg 88%
    06:00 +17°C° 0 mm 2 mps 701 mmHg 81%
    07:00 +19°C° 0 mm 2 mps 702 mmHg 73%
    08:00 +21°C° 0 mm 3 mps 702 mmHg 59%
    09:00 +23°C° 0 mm 4 mps 703 mmHg 45%
    10:00 +27°C° 0 mm 5 mps 703 mmHg 31%
    11:00 +28°C° 0 mm 5 mps 703 mmHg 32%
    12:00 +29°C° 0 mm 5 mps 702 mmHg 32%
    13:00 +30°C° 0 mm 5 mps 702 mmHg 33%
    14:00 +29°C° 0.4 mm 5 mps 702 mmHg 40%
    15:00 +27°C° 0.4 mm 4 mps 701 mmHg 48%
    16:00 +26°C° 0.4 mm 3 mps 701 mmHg 55%
    17:00 +25°C° 1 mm 4 mps 701 mmHg 62%
    18:00 +23°C° 1 mm 4 mps 701 mmHg 70%
    19:00 +21°C° 1 mm 4 mps 701 mmHg 77%
    20:00 +20°C° 0.2 mm 3 mps 701 mmHg 80%
    21:00 +19°C° 0.2 mm 2 mps 702 mmHg 84%
    22:00 +19°C° 0.2 mm 1 mps 702 mmHg 88%
    23:00 +19°C° 0 mm 1 mps 702 mmHg 88%

    16 December, Sunday

    Time Temperature Precipitation Wind Pressure Humidity
    00:00 +18°C° 0 mm 1 mps 702 mmHg 89%
    01:00 +16°C° 0 mm 0 mps 701 mmHg 89%
    02:00 +16°C° 0 mm 0 mps 701 mmHg 89%
    03:00 +15°C° 0 mm 0 mps 701 mmHg 88%
    04:00 +15°C° 0 mm 0 mps 702 mmHg 88%
    05:00 +18°C° 0 mm 1 mps 702 mmHg 82%
    06:00 +20°C° 0 mm 1 mps 703 mmHg 75%
    07:00 +21°C° 0 mm 1 mps 703 mmHg 69%
    08:00 +24°C° 0 mm 2 mps 704 mmHg 59%
    09:00 +26°C° 0 mm 4 mps 704 mmHg 48%
    10:00 +28°C° 0 mm 5 mps 704 mmHg 38%
    11:00 +28°C° 0 mm 5 mps 703 mmHg 37%
    12:00 +28°C° 0 mm 4 mps 703 mmHg 36%
    13:00 +29°C° 0 mm 4 mps 703 mmHg 36%
    14:00 +29°C° 0 mm 4 mps 702 mmHg 35%
    15:00 +29°C° 0 mm 4 mps 702 mmHg 34%
    16:00 +29°C° 0 mm 4 mps 702 mmHg 34%
    17:00 +27°C° 0 mm 3 mps 702 mmHg 38%
    18:00 +25°C° 0 mm 3 mps 702 mmHg 42%
    19:00 +23°C° 0 mm 2 mps 703 mmHg 46%
    20:00 +21°C° 0 mm 2 mps 703 mmHg 49%
    21:00 +20°C° 0 mm 2 mps 703 mmHg 51%
    22:00 +19°C° 0 mm 1 mps 703 mmHg 53%
    23:00 +19°C° 0 mm 1 mps 703 mmHg 55%
    Show more